Regional Weather Roundup
Issued by NWS

Home | Current Version | Previous Version | Graphics & Text | Print | Product List | Glossary On
Versions: 1 2 3 4 5 6 7 8 9 10 11 12 13 14 15 16 17 18 19 20 21 22 23 24 25 26 27 28 29 30 31 32 33 34 35 36 37 38 39 40 41 42 43 44 45 46 47 48 49 50
000
ASUS45 KBOI 140710
RWRID
WEATHER ROUNDUP FOR IDAHO
NATIONAL WEATHER SERVICE BOISE ID
100 AM MDT SUN SEP 14 2014

NOTE: "FAIR" INDICATES FEW OR NO CLOUDS BELOW 12000 FEET
WITH NO SIGNIFICANT WEATHER AND/OR OBSTRUCTIONS TO VISIBILITY

IDZ012-014-140800-
SOUTHWEST IDAHO


CITY           SKY/WX    TMP DP  RH WIND       PRES   REMARKS
BOISE          CLEAR     61  31  32 E3        29.92R
CALDWELL       CLEAR     52  36  54 S5        29.92S
MOUNTAIN HOME  PTCLDY    54  31  42 NE3       29.91S HAZE
$$

IDZ016-017-140800-
SOUTHCENTRAL IDAHO


CITY           SKY/WX    TMP DP  RH WIND       PRES   REMARKS
BURLEY         CLEAR     50  37  61 S5        29.98R
JEROME         CLEAR     55  35  47 SE5       29.97F
TWIN FALLS     PTCLDY    59  31  34 S10       29.98S
$$

IDZ019>023-140800-
SOUTHEAST IDAHO


CITY           SKY/WX    TMP DP  RH WIND       PRES   REMARKS
IDAHO FALLS    CLEAR     61  33  35 S10       30.00S
POCATELLO      CLEAR     57  31  37 SW8       30.01R
REXBURG        CLEAR     45  35  68 NE6       30.01R
$$

IDZ006-010-011-018-031-032-140800-
CENTRAL IDAHO MOUNTAINS


CITY           SKY/WX    TMP DP  RH WIND       PRES   REMARKS
MCCALL         CLEAR     44  27  51 NE3       30.03R
HAILEY         CLEAR     52  30  43 NW12      30.06R
STANLEY          N/A     36  21  54 S7        30.14R WCI  30
SALMON         CLEAR     43  37  81 CALM      29.99S
CHALLIS        CLEAR     48  25  40 SW3       30.03R
$$

IDZ002-004-006-007-026-140800-
NORTHERN IDAHO


CITY           SKY/WX    TMP DP  RH WIND       PRES   REMARKS
LEWISTON       CLEAR     58  25  28 S3        29.92R
LOWELL           N/A     49  42  77 CALM      29.98R
COEUR D`ALENE  CLEAR     50  34  53 E8        29.96S
MULLAN PASS    PTCLDY    48  25  40 VRB3      30.07S
$$


USA.gov is the U.S. government's official web portal to all federal, state and local government web resources and services.